GEFSSE_con_probscp_330.txt.gz
Probability
3 3 3 2 1 1 2 2 2 1 0 0 1 2 3 3 3 3 2 3 4 6 5 2 1 1 1 0 0 0 0 1 2 2 2 3 4 2 2 3 3 2 1
3 3 3 3 2 2 2 1 1 0 0 0 1 2 2 2 3 2 1 2 3 4 3 1 0 0 0 0 0 0 0 0 1 1 1 2 3 3 3 3 3 3 2
2 3 3 4 4 4 3 1 0 0 0 0 0 1 1 1 1 1 0 0 1 1 1 0 0 0 0 0 0 0 0 0 0 0 0 1 1 2 4 5 4 3 3
1 1 3 5 6 6 5 3 2 0 0 0 0 0 0 0 0 0 0 0 0 0 0 0 0 0 0 0 0 0 0 0 0 0 0 0 0 2 4 5 5 3 3
0 0 2 6 7 7 6 6 4 2 1 1 0 0 0 0 0 0 0 0 0 0 0 0 0 0 0 0 0 0 0 0 0 0 0 0 0 2 4 5 4 3 2
0 0 2 5 7 6 6 6 6 5 3 2 1 1 1 1 1 0 0 0 0 0 0 0 0 0 0 0 0 0 0 0 0 0 0 0 1 3 5 5 3 2 1
0 0 1 3 4 5 6 6 6 6 4 3 3 2 2 2 2 1 0 0 0 0 0 0 0 0 0 0 1 1 0 0 0 0 0 0 1 4 6 5 3 2 1
0 0 1 2 2 3 4 5 6 5 5 4 3 3 3 3 3 2 0 0 0 0 0 0 0 0 0 0 1 1 1 0 0 0 0 0 2 4 5 4 3 2 1
0 0 0 1 1 1 2 3 3 4 4 3 3 3 3 3 3 1 0 0 0 0 0 0 0 0 0 0 1 1 1 1 1 0 1 1 3 5 4 3 2 1 0
0 0 0 0 0 0 0 1 1 2 3 3 3 3 3 3 2 1 0 0 0 0 0 0 0 0 0 0 1 2 3 2 1 0 0 1 4 5 3 2 0 0 1
0 0 0 0 0 0 0 0 0 1 2 3 3 3 3 1 1 0 0 1 1 1 0 0 0 0 0 0 2 4 4 2 1 0 0 2 4 5 4 2 1 1 2
0 0 0 0 0 0 0 0 0 0 1 2 3 3 3 1 0 0 0 1 2 1 0 0 0 0 0 0 1 3 3 3 2 1 1 2 5 6 5 4 2 2 2
0 0 0 0 0 0 0 0 0 0 0 1 1 2 3 2 1 0 0 1 1 1 0 0 0 0 0 0 0 1 1 3 3 2 2 3 4 4 5 4 3 3 3
1 0 0 0 0 1 1 1 1 1 0 0 0 1 3 3 1 1 1 0 0 0 0 0 1 0 0 0 0 0 2 3 3 3 3 4 4 4 4 4 3 3 3
2 1 0 0 0 1 2 3 3 3 2 2 1 1 3 3 3 2 2 1 1 0 0 0 0 0 0 0 0 1 4 5 4 4 4 6 7 7 6 6 4 3 3
2 2 1 1 1 2 3 3 4 4 4 4 3 3 3 3 3 3 3 3 2 2 1 1 1 1 1 1 1 2 4 5 5 4 4 6 7 7 7 6 5 5 5
2 3 3 4 3 3 3 3 4 4 4 3 3 2 2 2 3 3 3 3 2 2 2 2 2 2 2 1 1 1 2 4 4 4 4 4 5 6 7 7 6 6 7
3 3 5 6 4 3 3 3 3 4 3 2 1 1 1 1 2 3 3 2 1 1 1 2 2 2 1 1 0 0 1 2 3 3 3 3 4 5 7 8 9 9 8
4 5 6 6 5 3 3 3 2 2 1 0 0 0 0 1 2 2 2 2 1 0 0 1 1 1 0 0 0 0 0 1 2 2 3 4 5 6 6 8 10 9 7
4 5 6 6 5 4 3 3 1 0 0 0 0 0 0 1 1 1 1 1 1 0 0 0 0 0 0 0 0 0 0 1 2 3 4 6 7 6 6 6 7 6 6
5 6 5 5 6 5 4 2 1 0 0 0 0 0 0 0 0 0 0 0 0 0 0 0 0 0 0 0 0 0 0 1 2 3 4 6 8 8 6 4 4 4 5
8 8 7 6 5 5 4 3 2 0 0 0 0 1 1 0 0 0 0 0 0 0 0 0 0 0 0 0 0 0 0 0 1 1 2 5 8 9 7 5 4 4 4
10 9 8 7 5 4 3 3 3 1 0 0 0 0 1 1 1 1 0 0 1 1 1 0 0 0 0 0 0 0 0 0 0 0 1 3 5 7 7 6 4 3 4
11 10 8 7 6 4 2 2 2 1 0 0 0 0 1 2 3 2 1 1 2 3 3 3 2 1 1 1 0 0 1 1 1 1 1 1 2 4 6 7 5 4 4
15 13 11 9 7 5 3 1 1 0 0 0 0 1 2 3 3 2 1 1 3 4 5 5 4 3 3 3 2 2 2 2 2 2 2 1 2 2 3 4 4 5 5
19 18 15 12 9 7 4 1 0 0 0 0 0 1 2 2 2 1 0 1 3 4 4 5 4 4 4 5 5 4 3 3 3 3 3 2 2 2 2 1 2 4 6

GEFSSE_con_probscp_336.txt.gz
Probability
0 2 4 4 3 2 2 2 3 2 1 2 2 1 0 1 2 3 3 2 2 1 0 0 0 0 0 1 2 2 1 0 0 0 0 0 0 0 0 0 1 3 3
1 3 5 4 2 2 2 1 2 1 0 1 1 0 0 1 2 3 2 1 1 0 0 0 0 0 0 0 1 1 0 0 0 0 0 0 0 0 0 1 2 3 3
1 4 6 5 2 1 1 0 0 0 0 0 0 0 0 1 2 1 1 0 0 0 0 0 0 0 0 0 0 0 0 0 0 0 0 0 0 0 0 1 2 3 3
2 4 6 5 3 2 1 0 0 0 0 0 0 0 0 1 1 0 0 0 0 0 0 0 0 0 0 0 0 0 0 1 1 1 0 0 0 0 0 1 2 3 3
2 4 5 5 4 2 1 0 0 0 0 0 0 0 0 0 0 0 0 0 0 0 0 0 0 0 0 0 0 0 0 1 2 1 0 0 0 0 0 0 1 1 2
3 3 4 4 3 2 1 0 1 0 0 0 0 0 0 0 1 0 0 0 0 0 0 0 0 0 0 0 0 0 0 1 2 1 0 0 0 1 1 0 0 1 2
3 3 3 3 2 1 0 0 0 0 0 1 0 0 0 0 0 0 0 0 0 0 0 0 0 0 0 0 0 0 0 0 0 0 0 0 1 2 2 1 1 2 3
3 2 2 1 1 0 0 0 0 0 0 0 0 0 0 0 0 0 0 0 0 0 0 0 0 0 0 0 0 0 0 0 1 1 0 0 1 2 3 3 3 3 3
2 1 0 0 0 0 0 0 0 0 0 0 0 0 0 0 0 0 0 0 0 0 0 0 0 0 0 0 0 0 1 1 1 1 0 0 0 2 3 3 3 3 4
1 0 0 0 0 0 0 0 0 0 0 0 0 0 0 0 0 0 1 1 1 0 0 0 0 0 0 0 0 1 1 1 1 1 0 0 1 2 4 4 3 3 4
0 0 0 0 0 0 1 0 0 0 0 0 0 0 0 0 0 0 1 2 2 1 1 0 0 0 0 0 0 1 1 1 0 0 0 0 1 3 5 4 2 1 2
0 0 0 0 0 0 0 0 0 0 0 0 1 1 1 0 0 0 1 1 2 3 2 1 0 0 0 0 0 0 0 0 0 0 0 0 0 2 3 3 1 0 1
0 0 0 0 0 0 0 0 0 0 0 0 1 2 2 1 1 1 1 1 3 3 3 2 1 1 0 0 0 0 0 0 0 0 0 0 0 0 1 1 1 0 0
0 0 0 0 0 0 0 0 0 0 0 0 1 1 2 2 2 2 2 3 3 3 3 3 1 1 0 0 0 0 0 0 1 1 1 0 1 1 2 2 3 3 3
0 0 0 0 0 0 0 0 0 0 0 0 0 0 1 2 2 2 3 3 3 3 3 3 2 1 0 0 0 0 0 0 1 2 1 1 2 5 6 7 8 8 8
0 0 0 0 0 0 0 0 0 1 0 0 0 0 0 1 1 1 1 2 2 1 1 2 2 1 0 0 0 0 0 0 1 1 1 2 4 8 11 12 12 11 11
0 0 0 0 0 0 0 0 0 0 0 0 0 0 0 0 0 0 0 1 1 0 0 1 1 0 0 0 0 0 0 0 0 0 1 3 6 9 12 13 13 12 11
0 0 0 0 0 0 0 1 1 0 0 0 0 0 0 0 0 0 0 0 0 0 0 0 0 0 0 0 0 0 0 0 0 0 1 4 6 8 9 10 12 12 11
0 1 1 1 0 1 1 2 1 0 0 0 0 0 0 0 0 0 0 0 0 0 0 0 0 0 0 0 0 0 0 0 0 0 1 3 5 6 6 7 9 10 9
1 2 2 2 2 2 3 2 1 0 0 0 0 0 0 0 0 0 0 0 0 0 0 0 0 0 0 0 0 0 0 0 0 0 1 2 3 4 4 5 7 7 7
2 3 3 3 3 3 3 2 1 0 0 0 0 0 0 0 0 0 0 0 0 0 0 0 0 0 0 0 0 0 0 0 0 0 0 1 1 2 3 4 5 5 6
4 4 3 3 3 3 3 2 1 0 0 0 0 0 0 0 0 0 0 0 0 0 0 0 0 0 0 0 0 0 0 0 0 0 0 0 0 1 2 3 4 4 4
6 5 4 4 4 4 3 1 0 0 0 0 0 0 0 0 0 0 0 0 0 0 0 0 0 1 1 1 0 0 2 2 1 0 0 1 1 1 1 1 2 3 4
7 7 6 5 4 4 3 1 0 0 0 0 0 0 0 0 0 0 0 0 0 0 0 0 1 2 3 3 2 2 4 4 2 1 1 2 2 2 1 2 3 4 5
7 8 7 6 4 4 3 3 2 0 0 0 0 0 0 0 0 0 0 0 0 0 0 0 1 3 5 5 5 5 5 4 3 2 2 3 3 3 3 3 4 6 6
7 7 7 5 4 3 4 4 3 1 0 0 0 0 0 0 0 0 0 0 0 0 0 0 1 3 6 6 6 6 6 5 4 3 4 3 3 3 3 3 4 6 6

GEFSSE_con_probscp_342.txt.gz
Probability
5 7 9 9 6 3 2 2 3 2 1 0 0 0 0 0 0 1 1 1 0 0 1 2 3 3 3 2 1 0 0 0 1 2 3 3 3 3 3 3 4 5 6
5 7 8 9 7 4 3 3 3 2 1 0 0 0 0 0 0 0 0 0 0 0 1 2 3 3 2 1 1 1 0 0 0 1 2 2 3 3 3 3 4 5 6
5 6 7 8 8 6 5 5 4 2 1 0 0 0 0 0 0 0 0 0 0 0 0 1 2 1 1 1 2 2 1 1 1 1 1 1 1 3 3 3 4 5 6
5 6 7 7 7 6 6 7 5 2 0 0 0 0 0 0 0 0 0 0 0 0 0 0 1 0 0 0 2 3 2 2 2 1 1 1 1 3 3 3 3 4 4
4 5 6 7 6 6 6 7 6 3 1 0 0 0 0 0 0 0 0 0 0 0 0 0 1 0 0 1 2 3 3 3 2 1 1 1 2 3 3 3 3 3 3
4 4 5 5 4 4 4 5 5 3 1 1 0 0 0 0 0 0 0 0 0 0 0 0 0 0 0 1 2 3 3 3 1 0 0 1 2 3 3 3 3 3 3
3 3 4 3 3 3 3 4 4 3 3 2 1 0 0 0 0 0 0 0 1 0 0 0 0 0 0 1 3 3 3 3 1 0 0 0 1 3 3 3 3 3 3
3 3 2 2 2 3 3 3 3 3 3 2 1 0 0 0 0 0 0 0 1 1 0 0 0 0 1 2 3 3 4 4 3 1 0 0 1 2 3 3 3 4 4
3 3 1 0 1 3 3 3 3 3 3 2 1 0 0 0 0 0 0 0 0 1 0 0 0 0 1 2 3 3 4 5 3 1 0 0 1 2 3 3 4 4 5
3 2 1 0 1 2 3 3 3 4 4 3 2 1 1 0 0 0 0 0 0 1 1 0 0 0 1 3 4 4 4 4 3 1 1 1 2 3 4 4 4 5 5
3 3 1 1 1 1 2 2 2 3 3 3 2 2 1 0 0 0 0 1 0 1 1 1 1 0 1 2 4 3 2 2 2 2 3 3 3 5 6 5 5 5 5
3 3 3 3 2 1 1 1 1 1 1 1 1 1 1 0 0 0 0 0 0 1 1 1 1 0 0 1 1 1 0 0 2 3 3 4 4 5 6 5 4 4 4
3 4 4 4 3 1 0 1 1 0 0 0 0 0 0 0 0 0 0 0 1 1 1 1 1 1 0 0 0 0 0 0 1 2 2 3 4 5 5 4 4 4 5
3 3 4 4 2 1 1 1 1 0 0 0 0 0 0 0 0 0 0 0 1 2 2 2 2 1 0 0 0 0 0 0 0 1 2 3 3 4 6 5 5 6 8
2 3 3 3 1 1 1 1 0 0 0 0 0 0 0 0 1 0 0 0 1 1 1 1 1 0 0 0 0 0 0 0 0 0 1 2 3 6 8 9 9 10 11
1 1 3 2 1 0 0 0 0 0 0 0 0 0 0 0 0 0 0 0 0 0 0 0 0 0 0 0 0 0 0 0 0 0 0 1 3 8 11 11 12 12 13
1 1 2 2 1 1 1 0 0 1 1 1 0 0 0 0 0 0 0 0 0 0 0 0 0 0 0 0 0 0 0 0 0 0 0 0 2 7 12 13 12 12 12
2 3 3 3 2 2 2 1 0 1 2 1 0 0 0 0 0 0 0 0 0 0 0 1 0 0 0 0 0 0 0 0 0 0 0 0 1 4 10 12 12 11 11
2 3 5 5 4 3 3 2 1 1 2 1 0 0 0 0 0 0 0 0 0 0 0 1 1 1 1 1 0 0 0 0 0 0 0 0 1 3 7 11 11 11 12
4 4 6 6 5 4 3 3 3 3 3 2 0 0 0 0 0 0 0 0 1 1 1 2 2 2 2 2 1 0 0 0 0 0 0 1 2 4 6 9 11 11 11
6 6 7 7 6 5 4 4 4 3 3 1 0 0 0 0 0 0 0 1 2 2 3 3 3 2 2 2 2 1 1 1 2 2 2 3 3 5 6 9 10 10 10
7 7 8 9 8 6 6 6 5 4 3 1 1 0 0 0 0 0 0 1 2 3 3 3 3 3 3 3 4 4 3 3 4 5 6 6 6 6 7 8 9 9 8
7 7 10 12 12 10 8 8 7 6 5 4 3 2 2 1 0 0 0 1 3 3 3 4 4 4 4 6 7 8 7 6 7 8 8 8 8 7 7 7 7 7 7
6 6 9 15 18 15 12 11 10 8 7 7 6 4 3 3 2 2 3 4 4 4 4 6 7 7 8 9 11 11 10 9 10 10 9 8 8 8 7 5 5 6 6
5 5 9 16 20 19 17 16 15 12 9 8 8 6 5 5 4 5 8 9 8 7 7 7 7 9 11 14 14 12 11 10 10 10 9 8 7 7 6 5 5 6 6
7 6 9 16 20 21 20 19 19 16 10 8 9 9 8 6 6 7 11 12 11 10 9 7 7 8 12 16 15 12 10 10 10 11 10 8 6 6 7 6 6 6 6

GEFSSE_con_probscp_348.txt.gz
Probability
4 4 3 1 0 0 1 1 1 2 3 3 4 4 4 3 3 3 4 4 2 1 1 1 2 2 2 3 4 5 4 2 2 3 3 3 3 3 3 3 3 4 4
6 5 3 2 0 0 0 0 1 2 3 3 4 4 4 3 3 3 4 4 3 2 2 2 3 3 3 2 3 4 3 2 1 2 2 2 3 3 3 3 3 4 4
6 6 4 3 1 0 0 0 0 1 3 3 3 4 3 3 3 3 3 3 3 3 3 3 3 3 2 1 1 3 3 2 1 1 1 1 1 3 4 4 4 4 4
6 6 5 4 2 1 0 0 0 1 2 3 3 3 3 3 3 2 3 3 2 3 3 3 3 2 1 0 1 2 3 2 1 0 0 0 1 3 4 5 5 5 4
5 6 6 5 2 0 0 0 0 1 2 3 3 3 3 3 1 1 2 2 2 2 3 3 3 2 2 1 1 1 1 1 1 1 0 0 1 3 4 5 5 5 4
5 6 7 6 2 0 0 0 0 0 1 1 3 3 3 2 1 1 2 2 1 1 1 3 3 3 3 2 1 1 1 2 3 2 2 2 2 4 5 4 3 3 4
5 6 6 5 2 0 0 1 0 0 0 1 2 3 3 2 2 3 3 2 1 1 1 3 3 3 3 2 2 2 3 3 3 3 3 4 4 6 6 5 3 3 4
4 5 5 3 1 0 0 0 0 0 0 1 3 3 3 3 3 3 3 2 2 2 3 3 3 4 4 4 3 3 3 3 2 1 2 4 6 8 8 6 4 4 4
4 5 4 2 1 0 0 0 0 0 1 2 3 4 4 4 3 3 3 3 3 4 4 3 3 5 7 7 6 6 6 5 3 1 1 3 7 9 8 5 4 4 4
4 4 3 2 1 1 2 1 1 2 2 3 5 5 5 4 4 3 3 4 5 5 4 2 3 6 9 10 10 10 10 8 5 3 3 4 6 8 7 5 3 2 2
3 2 3 2 1 1 2 2 3 3 3 4 5 5 4 3 3 2 3 7 8 7 5 4 5 8 11 11 10 11 10 8 5 5 6 6 7 7 7 6 4 2 2
2 2 3 2 1 1 1 2 2 2 2 3 4 4 3 1 1 1 3 8 11 9 7 7 9 9 9 9 8 7 7 5 4 5 6 8 8 7 8 7 5 3 2
3 3 2 2 1 0 0 1 1 1 1 2 3 4 2 1 0 0 2 6 10 9 7 8 9 8 7 5 5 5 4 3 2 3 5 7 9 8 7 5 4 4 5
3 3 2 1 0 0 1 2 2 1 1 2 4 3 2 1 1 2 4 6 8 9 7 7 8 7 5 3 2 3 3 2 1 1 4 8 9 8 6 4 4 5 6
2 2 3 2 1 1 2 3 3 2 2 3 3 2 1 1 3 4 6 7 7 8 8 8 8 8 6 3 2 3 4 2 1 1 4 8 9 8 7 6 6 6 6
1 2 3 4 5 4 4 3 3 3 4 4 3 2 1 1 2 4 6 6 6 6 7 8 7 7 7 4 3 5 6 5 2 2 4 7 8 8 8 9 9 8 6
2 3 4 5 8 9 8 5 3 3 4 4 4 3 3 2 2 4 4 4 4 4 6 8 8 6 6 4 4 6 7 6 5 4 6 7 7 7 9 10 11 11 10
7 9 8 7 9 10 10 8 5 3 4 5 4 5 5 3 3 4 3 2 3 4 5 7 8 6 6 6 6 6 6 7 7 7 7 7 7 8 9 11 13 15 16
16 16 15 13 12 11 11 10 8 5 6 8 8 7 5 3 3 4 4 2 3 6 6 6 7 7 7 8 7 5 5 7 9 9 8 8 9 10 11 11 12 15 17
21 24 24 22 20 16 13 12 10 8 9 12 11 10 8 5 5 6 6 5 5 7 7 5 6 7 8 8 6 5 5 7 10 12 10 9 9 10 12 13 12 11 11
25 30 32 30 28 24 17 14 14 13 13 13 13 13 12 10 9 9 8 8 9 10 8 6 7 8 8 7 6 7 6 7 10 12 12 10 7 7 11 15 14 11 9
30 32 33 31 30 28 23 18 18 19 18 18 17 16 14 14 14 13 12 11 11 13 11 10 11 12 10 9 10 10 9 9 11 12 10 8 6 6 10 14 17 16 15
29 30 30 31 32 30 26 23 23 24 25 25 24 21 18 18 18 18 16 14 13 15 15 14 14 13 12 12 12 13 12 12 13 12 9 8 8 9 9 10 14 19 19
24 26 30 33 35 32 28 24 24 26 28 28 29 27 25 23 22 22 20 18 17 17 16 16 15 14 13 12 12 12 13 12 12 11 9 9 11 12 11 8 11 17 20
21 25 31 34 34 32 27 23 22 25 26 27 29 29 27 27 26 26 25 23 22 21 20 18 17 17 16 14 12 11 11 11 9 8 8 8 10 11 11 8 9 14 18
21 24 30 33 32 28 25 22 22 23 24 25 27 27 27 28 29 29 28 27 25 25 25 22 20 20 20 17 13 10 10 10 8 6 6 6 7 8 9 9 10 13 16

GEFSSE_con_probscp_354.txt.gz
Probability
1 1 3 4 3 2 1 2 3 2 1 0 0 0 0 1 1 1 1 3 4 4 3 1 0 0 0 0 0 0 0 0 0 0 0 0 0 0 0 0 1 1 1
2 2 3 4 3 3 2 3 3 3 1 0 0 0 0 1 1 1 1 2 3 2 2 1 0 0 0 0 0 0 0 0 0 0 0 0 0 0 0 0 0 0 0
3 3 3 3 3 2 3 3 4 4 1 0 0 0 0 1 1 0 0 1 1 0 0 0 0 0 0 0 0 0 0 0 0 0 0 0 0 0 0 0 0 0 0
3 3 3 3 2 1 1 2 3 3 1 0 0 0 0 0 0 0 0 0 0 0 0 0 0 0 0 0 0 0 0 0 0 0 0 0 0 0 0 0 0 0 0
2 2 3 3 2 1 0 1 1 2 1 0 0 0 0 0 0 0 0 0 1 1 1 0 0 0 0 0 0 0 0 1 1 0 0 0 0 0 1 1 1 0 0
1 2 3 3 2 1 0 0 0 0 0 0 0 0 0 0 0 0 0 0 1 2 1 0 0 0 1 1 1 1 1 1 1 0 0 0 0 1 2 2 2 1 0
1 1 2 3 3 1 0 0 0 0 0 0 0 0 0 0 0 0 0 0 1 1 1 0 0 0 1 2 2 2 2 2 1 0 0 0 0 1 2 3 4 3 3
0 0 1 3 3 2 0 0 1 1 0 0 0 0 0 0 0 0 0 1 2 2 1 1 1 1 2 3 3 3 4 3 2 0 0 0 0 1 2 4 6 7 7
0 0 1 2 3 2 1 1 1 0 0 0 0 0 0 0 0 0 1 2 4 3 1 1 1 2 3 3 3 4 5 5 3 1 0 0 0 1 2 5 7 8 8
0 0 0 1 1 1 0 0 0 0 0 0 0 0 0 0 0 0 1 2 4 4 2 2 3 4 4 4 3 4 4 4 3 1 0 0 1 1 2 3 5 6 6
0 0 0 0 0 0 0 0 0 0 0 0 0 0 0 0 0 0 0 2 3 4 4 5 5 6 5 3 3 3 4 3 2 1 0 0 1 1 1 2 3 5 6
0 0 0 0 0 0 0 0 0 0 0 0 0 0 0 0 0 0 0 2 3 3 4 5 5 5 4 2 1 2 3 2 2 1 0 0 1 1 1 2 4 5 7
0 0 0 0 0 0 0 0 0 0 0 0 0 0 0 0 0 0 0 1 1 1 1 2 2 2 1 1 0 1 1 1 1 1 0 1 3 4 3 3 4 4 4
0 0 0 0 0 0 0 0 0 0 0 0 0 0 0 0 0 0 0 0 0 0 0 0 0 0 0 0 0 1 1 0 1 1 1 3 6 7 5 5 4 3 3
0 1 1 1 1 1 1 0 0 0 0 0 0 0 0 0 0 0 0 0 0 0 0 0 0 0 0 0 0 1 1 1 2 2 2 4 7 8 7 6 5 5 5
1 1 2 2 2 2 1 1 0 0 0 0 0 0 0 0 0 0 0 0 0 0 0 0 0 0 0 0 0 1 1 2 3 2 1 2 5 7 7 7 7 8 9
0 1 1 1 1 2 2 2 1 0 1 1 1 1 0 0 0 0 0 0 0 0 0 0 0 0 0 0 0 0 0 1 2 2 1 0 2 4 5 7 9 11 12
1 1 1 1 1 1 2 3 2 1 1 2 2 2 1 1 1 0 0 0 0 0 0 0 0 0 0 0 0 0 0 0 1 1 0 0 0 2 5 7 10 13 14
3 4 4 3 2 1 2 3 3 1 1 1 2 3 3 2 2 1 0 0 0 0 0 0 0 0 0 0 0 0 0 0 0 0 0 0 1 2 3 4 8 12 15
7 6 5 4 3 3 3 4 4 3 1 0 1 2 3 3 3 2 1 0 0 0 0 0 0 0 0 0 0 0 0 0 0 0 0 0 1 2 2 2 3 7 10
10 9 7 6 5 4 5 5 6 4 1 0 0 1 1 3 3 3 3 2 1 1 0 0 0 0 0 0 1 1 0 0 0 0 0 1 2 3 2 1 0 1 2
12 10 9 8 6 5 4 3 4 3 1 0 0 0 1 2 2 2 3 4 3 2 1 0 0 0 0 0 1 1 0 0 0 0 0 1 2 2 2 1 0 0 0
12 11 9 8 6 4 2 2 2 2 1 2 2 1 0 1 2 2 2 3 3 3 2 1 1 0 0 1 1 1 1 1 1 0 1 1 1 1 1 0 0 0 0
11 10 8 6 4 3 3 3 4 3 2 4 5 3 1 1 1 2 2 3 4 4 4 3 2 1 2 3 2 1 1 2 1 1 1 2 2 1 0 0 0 0 1
12 12 10 7 5 4 4 6 7 7 6 6 6 5 3 2 2 2 4 5 6 6 4 4 4 5 5 5 3 1 1 2 1 0 1 1 2 1 0 0 0 1 2
14 14 12 10 7 6 6 7 9 11 10 8 7 6 5 3 2 3 5 7 9 7 5 4 6 8 8 6 3 1 0 1 0 0 0 0 1 0 0 0 0 1 2

GEFSSE_con_probscp_360.txt.gz
Probability
3 3 4 3 1 0 0 0 0 1 1 1 0 1 1 2 1 1 2 3 3 2 1 1 1 0 0 0 0 0 0 0 0 0 0 0 0 0 0 0 0 0 0
3 3 3 3 1 0 0 1 1 0 0 0 1 1 1 1 0 0 1 2 3 2 1 1 1 1 0 0 0 0 0 0 0 0 0 0 0 0 0 0 0 0 0
3 3 3 3 2 1 1 2 1 0 0 0 1 1 0 0 0 0 1 1 2 2 1 1 1 1 0 0 0 0 0 0 0 0 0 0 0 0 0 0 0 0 0
3 4 3 2 1 1 1 1 1 0 0 0 0 0 0 0 0 0 1 1 1 1 1 0 1 1 0 0 0 0 0 0 0 0 0 0 0 0 0 0 0 0 0
3 4 3 2 0 0 0 0 0 0 0 0 0 0 0 0 0 0 0 0 0 1 0 0 0 0 0 0 0 0 0 0 0 0 0 0 0 0 0 0 0 0 0
2 3 3 2 0 0 0 0 0 0 0 0 0 0 0 0 0 0 0 0 0 0 0 0 0 0 0 0 0 0 0 1 2 1 1 0 0 0 0 0 0 0 0
1 1 2 2 0 0 0 0 0 0 0 0 0 0 0 0 0 0 0 0 0 0 0 0 0 0 0 0 0 0 0 1 3 3 2 1 0 0 0 0 0 0 0
0 0 1 1 0 0 0 0 0 0 0 0 0 0 0 0 0 0 0 0 0 0 0 0 0 0 0 0 0 1 1 1 2 2 2 1 0 0 0 0 0 0 0
0 0 0 0 0 0 0 0 0 0 0 0 0 0 0 0 0 0 0 0 0 0 0 0 0 0 1 0 1 2 2 1 1 1 1 0 0 0 0 0 0 0 0
0 0 0 0 0 0 0 1 0 0 0 0 0 0 0 0 0 0 0 0 0 0 0 0 0 0 0 0 1 2 3 1 0 0 0 0 0 0 0 0 1 1 1
0 0 0 0 0 0 0 0 0 0 0 0 0 0 0 0 0 0 0 0 0 0 0 0 0 0 0 0 1 2 2 1 0 0 0 0 0 0 0 1 2 2 2
0 0 0 0 0 0 0 0 0 0 0 0 0 0 0 0 0 0 0 0 0 0 0 0 1 0 0 0 0 1 1 0 0 0 0 0 0 0 0 1 2 3 3
0 0 0 0 0 0 0 0 0 0 0 0 0 0 0 0 0 0 0 0 0 0 0 0 0 0 0 0 0 0 0 0 0 0 0 1 1 1 1 1 1 1 2
0 0 0 0 0 0 0 0 0 0 0 0 0 0 0 0 0 0 0 0 0 0 0 0 0 0 0 0 0 0 0 0 0 0 1 2 2 2 1 0 0 1 2
0 0 0 0 0 0 0 0 0 0 0 0 0 0 0 0 0 0 0 0 0 0 0 0 0 0 0 0 0 0 0 0 0 0 1 2 2 2 1 0 0 2 3
0 0 0 0 0 0 0 0 0 0 0 0 0 0 0 0 0 0 0 0 0 0 0 0 0 0 0 0 0 0 0 0 0 0 0 1 1 1 0 0 1 2 4
0 0 0 0 0 0 0 0 0 0 0 0 0 0 0 0 0 0 0 0 0 0 0 0 0 0 0 0 0 0 0 0 0 0 0 0 0 1 1 1 2 2 3
0 0 0 0 0 0 0 0 0 0 0 0 1 1 0 0 0 0 0 0 0 0 0 0 0 0 0 0 0 0 0 0 0 0 0 0 1 2 2 3 3 3 3
0 0 0 0 0 1 1 0 0 0 0 0 1 2 1 0 0 1 1 0 0 0 0 0 0 0 0 0 0 0 0 0 0 0 0 1 2 2 2 2 2 3 3
0 0 1 1 1 2 2 1 0 0 0 0 1 1 1 0 1 2 2 1 1 0 0 0 0 0 0 0 0 0 0 0 0 0 0 1 1 1 1 1 1 2 3
1 1 1 1 2 4 4 2 0 0 0 0 0 0 0 1 2 3 3 2 2 1 0 0 0 0 0 0 0 0 0 0 0 0 0 0 0 0 0 0 0 2 3
1 1 1 1 1 3 4 2 1 0 0 0 0 0 0 2 3 3 2 2 2 2 1 0 0 0 0 0 0 0 0 0 0 0 0 0 0 0 1 0 0 1 2
1 0 0 0 1 2 3 3 1 1 1 0 0 0 0 1 2 2 1 1 1 2 2 1 0 1 1 1 1 0 0 0 0 0 0 0 0 0 0 0 0 1 1
1 1 1 1 1 3 3 4 4 3 3 2 1 0 0 0 0 0 0 0 0 1 1 2 2 2 2 3 2 1 0 0 0 0 0 0 0 0 0 0 0 0 0
4 3 3 3 3 3 4 5 7 6 5 5 3 2 0 0 0 0 1 1 1 1 2 3 4 4 4 4 4 2 1 0 0 0 0 0 0 0 0 0 1 1 0
5 5 5 4 3 3 4 5 7 7 6 6 5 3 1 0 0 1 2 2 2 3 4 5 5 5 5 6 5 3 2 1 0 0 0 0 0 0 0 1 2 2 1